Regional Weather Roundup
Issued by NWS

Home | Current Version | Previous Version | Graphics & Text | Print | Product List | Glossary On
Versions: 1 2 3 4 5 6 7 8 9 10 11 12 13 14 15 16 17 18 19 20 21 22 23 24 25 26 27 28 29 30 31 32 33 34 35 36 37 38 39 40 41 42 43 44 45 46 47 48 49 50
000
ASUS45 KBOI 191810
RWRID
WEATHER ROUNDUP FOR IDAHO
NATIONAL WEATHER SERVICE BOISE ID
1200 PM MDT TUE AUG 19 2014

NOTE: "FAIR" INDICATES FEW OR NO CLOUDS BELOW 12000 FEET
WITH NO SIGNIFICANT WEATHER AND/OR OBSTRUCTIONS TO VISIBILITY

IDZ012-014-191900-
SOUTHWEST IDAHO


CITY           SKY/WX    TMP DP  RH WIND       PRES   REMARKS
BOISE          FAIR      81  47  30 NW7       29.81R
CALDWELL       FAIR      75  50  41 SW8       29.82S
MOUNTAIN HOME  FAIR      86  43  22 E8        29.81S
$$

IDZ016-017-191900-
SOUTHCENTRAL IDAHO


CITY           SKY/WX    TMP DP  RH WIND       PRES   REMARKS
BURLEY         FAIR      78  52  40 S15G22    29.87F
JEROME         FAIR      81  50  33 E13       29.87F
TWIN FALLS     FAIR      80  56  43 NE15      29.87S
$$

IDZ019>023-191900-
SOUTHEAST IDAHO


CITY           SKY/WX    TMP DP  RH WIND       PRES   REMARKS
IDAHO FALLS    CLOUDY    74  48  39 SW9       29.96S
POCATELLO      PTSUNNY   79  50  36 S20G26    29.93F
REXBURG        PTSUNNY   68  50  52 CALM      29.97R
$$

IDZ006-010-011-018-031-032-191900-
CENTRAL IDAHO MOUNTAINS


CITY           SKY/WX    TMP DP  RH WIND       PRES   REMARKS
MCCALL         FAIR      73  43  33 S5        29.92S
HAILEY         PTSUNNY   73  45  35 W10       29.96F
STANLEY          N/A     74  38  27 VRB5      30.02F
SALMON         FAIR      72  46  40 CALM      29.85F
CHALLIS        FAIR      74  41  30 N3        29.92F
$$

IDZ002-004-006-007-026-191900-
NORTHERN IDAHO


CITY           SKY/WX    TMP DP  RH WIND       PRES   REMARKS
LEWISTON       FAIR      83  52  34 N6        29.74F
LOWELL           N/A     77  52  41 CALM      29.78F
COEUR D`ALENE  FAIR      77  55  47 N6        29.78F
MULLAN PASS    FAIR      65  47  52 CALM      29.97S
$$


USA.gov is the U.S. government's official web portal to all federal, state and local government web resources and services.